| time (UTC) | temp F | wind direction | speed knots | gust knots | rain 1hr in | rain 24hr in | rain mn in | humidity % | barometer mb |
| 20260507161532 | 62 | 240 | 2.6 | 7.0 | 0.00 | 0.28 | 0.21 | 53 | 1006.8 |
| 20260507161014 | 62 | 355 | 1.7 | 6.1 | 0.00 | 0.28 | 0.21 | 56 | 1006.9 |
| 20260507160514 | 62 | 286 | 1.7 | 6.1 | 0.00 | 0.28 | 0.21 | 57 | 1007.0 |
| 20260507160033 | 61 | 292 | 1.7 | 6.1 | 0.00 | 0.28 | 0.21 | 59 | 1007.2 |
| 20260507155514 | 61 | 88 | 1.7 | 7.8 | 0.00 | 0.28 | 0.21 | 60 | 1007.2 |
| 20260507155014 | 61 | 171 | 0.9 | 7.8 | 0.00 | 0.28 | 0.21 | 62 | 1007.3 |
| 20260507154531 | 60 | 34 | 1.7 | 7.0 | 0.00 | 0.28 | 0.21 | 60 | 1007.5 |
| 20260507154014 | 60 | 319 | 2.6 | 9.6 | 0.00 | 0.28 | 0.21 | 59 | 1007.5 |
| 20260507153514 | 59 | 289 | 1.7 | 9.6 | 0.00 | 0.28 | 0.21 | 65 | 1007.7 |
| 20260507153030 | 59 | 194 | 2.6 | 8.7 | 0.00 | 0.28 | 0.21 | 67 | 1007.5 |
| 20260507152518 | 58 | 178 | 0.9 | 7.0 | 0.00 | 0.28 | 0.21 | 64 | 1007.6 |
| 20260507152015 | 59 | 256 | 1.7 | 7.0 | 0.00 | 0.28 | 0.21 | 64 | 1007.7 |
| 20260507151530 | 59 | 0 | 0.9 | 7.0 | 0.00 | 0.28 | 0.21 | 66 | 1007.5 |
| 20260507151015 | 59 | 265 | 1.7 | 7.0 | 0.00 | 0.28 | 0.21 | 64 | 1007.7 |
| 20260507150515 | 59 | 350 | 0.9 | 6.1 | 0.00 | 0.28 | 0.21 | 67 | 1007.5 |
| 20260507150036 | 58 | 0 | 0.9 | 3.5 | 0.00 | 0.28 | 0.21 | 70 | 1007.7 |
| 20260507145513 | 57 | 0 | 0.0 | 3.5 | 0.00 | 0.28 | 0.21 | 73 | 1007.9 |
| 20260507145011 | 57 | 309 | 0.0 | 7.8 | 0.00 | 0.28 | 0.21 | 71 | 1007.9 |
| 20260507144530 | 57 | 263 | 0.9 | 7.8 | 0.00 | 0.28 | 0.21 | 69 | 1007.8 |
| 20260507144015 | 57 | 197 | 1.7 | 5.2 | 0.00 | 0.28 | 0.21 | 71 | 1008.0 |
| 20260507143514 | 57 | 200 | 0.9 | 7.8 | 0.00 | 0.28 | 0.21 | 73 | 1007.9 |
| 20260507143034 | 57 | 318 | 0.9 | 7.8 | 0.00 | 0.28 | 0.21 | 72 | 1007.9 |
| 20260507142511 | 57 | 0 | 1.7 | 5.2 | 0.00 | 0.28 | 0.21 | 71 | 1007.8 |
| 20260507142014 | 57 | 216 | 0.9 | 5.2 | 0.00 | 0.28 | 0.21 | 74 | 1008.0 |
| 20260507141533 | 57 | 218 | 0.9 | 5.2 | 0.00 | 0.28 | 0.21 | 77 | 1008.0 |
| 20260507141011 | 56 | 69 | 1.7 | 7.0 | 0.00 | 0.28 | 0.21 | 73 | 1008.0 |
| 20260507140514 | 56 | 331 | 0.9 | 9.6 | 0.00 | 0.28 | 0.21 | 74 | 1008.2 |
| 20260507140033 | 56 | 328 | 2.6 | 9.6 | 0.01 | 0.28 | 0.21 | 74 | 1008.2 |
| 20260507135517 | 55 | 99 | 0.0 | 4.3 | 0.01 | 0.28 | 0.21 | 78 | 1008.1 |
| 20260507135017 | 55 | 0 | 0.9 | 5.2 | 0.01 | 0.28 | 0.21 | 79 | 1008.2 |
| 20260507134534 | 55 | 278 | 0.9 | 7.0 | 0.01 | 0.28 | 0.21 | 82 | 1008.1 |
| 20260507134015 | 54 | 283 | 1.7 | 7.0 | 0.01 | 0.28 | 0.21 | 80 | 1008.1 |
| 20260507133514 | 54 | 242 | 1.7 | 6.1 | 0.01 | 0.28 | 0.21 | 82 | 1008.1 |
| 20260507133032 | 54 | 306 | 1.7 | 5.2 | 0.01 | 0.28 | 0.21 | 83 | 1008.3 |
| 20260507132514 | 53 | 35 | 0.9 | 5.2 | 0.02 | 0.28 | 0.21 | 84 | 1008.4 |
| 20260507132015 | 53 | 0 | 1.7 | 5.2 | 0.02 | 0.28 | 0.21 | 84 | 1008.3 |
| 20260507131545 | 53 | 50 | 0.9 | 4.3 | 0.02 | 0.28 | 0.21 | 87 | 1008.2 |
| 20260507131016 | 52 | 0 | 0.9 | 4.3 | 0.02 | 0.28 | 0.21 | 88 | 1008.2 |
| 20260507130515 | 52 | 311 | 0.9 | 6.1 | 0.02 | 0.28 | 0.21 | 89 | 1008.2 |
| 20260507130029 | 51 | 265 | 1.7 | 6.1 | 0.01 | 0.27 | 0.20 | 90 | 1008.5 |
| 20260507125514 | 51 | 0 | 0.9 | 3.5 | 0.02 | 0.27 | 0.20 | 90 | 1008.3 |
| 20260507125011 | 51 | 257 | 0.0 | 2.6 | 0.02 | 0.27 | 0.20 | 91 | 1008.2 |
| 20260507124534 | 51 | 0 | 0.0 | 1.7 | 0.02 | 0.27 | 0.20 | 90 | 1008.4 |
| 20260507124016 | 50 | 0 | 0.0 | 2.6 | 0.02 | 0.27 | 0.20 | 90 | 1008.3 |
| 20260507123514 | 50 | 0 | 0.0 | 2.6 | 0.02 | 0.27 | 0.20 | 90 | 1008.3 |
| 20260507123030 | 50 | 278 | 0.0 | 2.6 | 0.02 | 0.26 | 0.19 | 91 | 1008.2 |
| 20260507122511 | 50 | 0 | 0.0 | 2.6 | 0.02 | 0.26 | 0.19 | 90 | 1008.1 |
| 20260507122014 | 50 | 0 | 0.0 | 2.6 | 0.02 | 0.26 | 0.19 | 90 | 1008.7 |
| 20260507121531 | 49 | 0 | 0.0 | 2.6 | 0.02 | 0.26 | 0.19 | 90 | 1008.5 |
| 20260507121014 | 49 | 0 | 0.0 | 2.6 | 0.03 | 0.26 | 0.19 | 90 | 1008.7 |
| 20260507120513 | 49 | 0 | 0.0 | 2.6 | 0.03 | 0.26 | 0.19 | 90 | 1008.7 |
| 20260507120039 | 49 | 229 | 0.0 | 1.7 | 0.02 | 0.25 | 0.18 | 90 | 1008.3 |
| 20260507115513 | 49 | 0 | 0.0 | 1.7 | 0.02 | 0.25 | 0.18 | 90 | 1008.2 |
| 20260507115015 | 49 | 0 | 0.0 | 1.7 | 0.02 | 0.25 | 0.18 | 90 | 1008.1 |
| 20260507114529 | 49 | 0 | 0.0 | 1.7 | 0.03 | 0.25 | 0.18 | 90 | 1008.1 |
| 20260507114014 | 49 | 0 | 0.0 | 1.7 | 0.03 | 0.25 | 0.18 | 90 | 1008.2 |
| 20260507113513 | 48 | 214 | 0.0 | 1.7 | 0.02 | 0.24 | 0.17 | 90 | 1008.1 |
| 20260507113032 | 48 | 0 | 0.0 | 0.0 | 0.02 | 0.24 | 0.17 | 90 | 1007.9 |
| 20260507112514 | 48 | 0 | 0.0 | 1.7 | 0.02 | 0.24 | 0.17 | 90 | 1008.2 |
| 20260507112014 | 48 | 0 | 0.0 | 1.7 | 0.02 | 0.24 | 0.17 | 90 | 1008.3 |
| 20260507111531 | 48 | 214 | 0.0 | 0.9 | 0.03 | 0.24 | 0.17 | 90 | 1008.3 |
| 20260507111014 | 48 | 0 | 0.0 | 1.7 | 0.02 | 0.23 | 0.16 | 90 | 1008.1 |
| 20260507110515 | 48 | 0 | 0.0 | 1.7 | 0.02 | 0.23 | 0.16 | 90 | 1007.9 |
| 20260507110029 | 48 | 335 | 0.0 | 1.7 | 0.02 | 0.23 | 0.16 | 89 | 1008.1 |
| 20260507105512 | 48 | 0 | 0.0 | 0.9 | 0.03 | 0.23 | 0.16 | 89 | 1008.3 |
| 20260507105015 | 48 | 0 | 0.0 | 1.7 | 0.03 | 0.23 | 0.16 | 90 | 1008.1 |
| 20260507104532 | 48 | 336 | 0.0 | 1.7 | 0.02 | 0.22 | 0.15 | 89 | 1007.6 |
| 20260507104015 | 48 | 0 | 0.0 | 1.7 | 0.03 | 0.22 | 0.15 | 89 | 1007.6 |
| 20260507103517 | 48 | 0 | 0.0 | 2.6 | 0.03 | 0.22 | 0.15 | 89 | 1007.5 |
| 20260507103032 | 48 | 0 | 0.0 | 2.6 | 0.03 | 0.22 | 0.15 | 89 | 1007.3 |
| 20260507102517 | 48 | 0 | 0.0 | 2.6 | 0.04 | 0.22 | 0.15 | 89 | 1007.8 |
| 20260507102013 | 48 | 340 | 0.0 | 1.7 | 0.03 | 0.21 | 0.14 | 89 | 1007.9 |
| 20260507101532 | 48 | 355 | 0.0 | 1.7 | 0.03 | 0.21 | 0.14 | 89 | 1008.0 |
| 20260507101014 | 48 | 0 | 0.0 | 1.7 | 0.03 | 0.21 | 0.14 | 89 | 1007.9 |
| 20260507100513 | 48 | 355 | 0.0 | 2.6 | 0.04 | 0.21 | 0.14 | 89 | 1008.0 |
| 20260507100035 | 48 | 355 | 0.0 | 2.6 | 0.03 | 0.20 | 0.13 | 89 | 1008.0 |
| 20260507095515 | 49 | 0 | 0.0 | 2.6 | 0.04 | 0.20 | 0.13 | 89 | 1007.8 |
| 20260507095013 | 49 | 0 | 0.0 | 4.3 | 0.04 | 0.20 | 0.13 | 89 | 1007.7 |
| 20260507094530 | 49 | 0 | 0.0 | 4.3 | 0.04 | 0.20 | 0.13 | 89 | 1007.6 |
| 20260507094013 | 49 | 0 | 0.0 | 2.6 | 0.04 | 0.19 | 0.12 | 89 | 1007.7 |
| 20260507093512 | 49 | 0 | 0.0 | 1.7 | 0.04 | 0.19 | 0.12 | 89 | 1007.5 |
| 20260507093032 | 49 | 0 | 0.0 | 1.7 | 0.05 | 0.19 | 0.12 | 89 | 1007.2 |
| 20260507092514 | 49 | 0 | 0.0 | 1.7 | 0.04 | 0.18 | 0.11 | 89 | 1007.5 |
| 20260507092012 | 49 | 0 | 0.0 | 1.7 | 0.05 | 0.18 | 0.11 | 89 | 1007.4 |
| 20260507091532 | 49 | 0 | 0.0 | 0.9 | 0.05 | 0.18 | 0.11 | 89 | 1007.3 |
| 20260507091014 | 49 | 355 | 0.0 | 0.9 | 0.05 | 0.17 | 0.10 | 89 | 1007.2 |
| 20260507090517 | 49 | 0 | 0.0 | 0.9 | 0.05 | 0.17 | 0.10 | 89 | 1007.5 |
| 20260507090033 | 49 | 0 | 0.0 | 1.7 | 0.06 | 0.17 | 0.10 | 89 | 1007.5 |
| 20260507085514 | 50 | 0 | 0.0 | 1.7 | 0.06 | 0.16 | 0.09 | 89 | 1007.5 |
| 20260507085014 | 50 | 355 | 0.0 | 2.6 | 0.06 | 0.16 | 0.09 | 89 | 1007.1 |
| 20260507084529 | 50 | 0 | 0.0 | 2.6 | 0.07 | 0.16 | 0.09 | 89 | 1006.8 |
| 20260507084014 | 50 | 0 | 0.0 | 2.6 | 0.06 | 0.15 | 0.08 | 88 | 1006.9 |
| 20260507083514 | 50 | 0 | 0.9 | 2.6 | 0.07 | 0.15 | 0.08 | 88 | 1007.2 |
| 20260507083030 | 50 | 0 | 0.0 | 1.7 | 0.07 | 0.14 | 0.07 | 88 | 1007.0 |
| 20260507082514 | 50 | 0 | 0.0 | 3.5 | 0.07 | 0.14 | 0.07 | 88 | 1006.9 |
| 20260507082016 | 50 | 0 | 0.0 | 3.5 | 0.06 | 0.13 | 0.06 | 88 | 1006.8 |
| 20260507081542 | 50 | 184 | 0.9 | 5.2 | 0.06 | 0.13 | 0.06 | 88 | 1007.1 |
| 20260507081015 | 51 | 224 | 0.0 | 5.2 | 0.05 | 0.12 | 0.05 | 87 | 1006.3 |
| 20260507080516 | 51 | 338 | 0.9 | 5.2 | 0.04 | 0.11 | 0.04 | 87 | 1007.1 |
| 20260507080033 | 51 | 0 | 0.9 | 5.2 | 0.04 | 0.11 | 0.04 | 86 | 1007.7 |
| 20260507075517 | 52 | 188 | 0.0 | 5.2 | 0.03 | 0.10 | 0.03 | 86 | 1007.3 |
| 20260507075014 | 52 | 348 | 0.0 | 7.0 | 0.03 | 0.10 | 0.03 | 86 | 1007.1 |
| 20260507074549 | 53 | 231 | 1.7 | 7.0 | 0.02 | 0.09 | 0.02 | 86 | 1007.1 |
| 20260507074014 | 53 | 294 | 1.7 | 5.2 | 0.01 | 0.08 | 0.01 | 86 | 1007.2 |
| 20260507073516 | 54 | 313 | 1.7 | 5.2 | 0.01 | 0.08 | 0.01 | 86 | 1006.7 |
| 20260507073034 | 55 | 0 | 0.0 | 2.6 | 0.00 | 0.07 | 0.00 | 86 | 1006.4 |
| 20260507072516 | 55 | 0 | 0.0 | 2.6 | 0.00 | 0.07 | 0.00 | 86 | 1006.0 |
| 20260507072013 | 55 | 0 | 0.0 | 5.2 | 0.00 | 0.07 | 0.00 | 86 | 1005.9 |
| 20260507071533 | 55 | 0 | 0.0 | 6.1 | 0.00 | 0.07 | 0.00 | 87 | 1005.7 |
| 20260507071013 | 55 | 274 | 0.9 | 6.1 | 0.00 | 0.07 | 0.00 | 87 | 1005.7 |
| 20260507070513 | 55 | 330 | 0.9 | 3.5 | 0.00 | 0.07 | 0.00 | 88 | 1005.9 |
| 20260507070030 | 55 | 332 | 0.9 | 3.5 | 0.00 | 0.07 | 0.00 | 88 | 1005.7 |
| 20260507065513 | 55 | 15 | 0.0 | 4.3 | 0.00 | 0.07 | 0.00 | 89 | 1005.7 |
| 20260507065013 | 55 | 342 | 0.0 | 4.3 | 0.00 | 0.07 | 0.00 | 89 | 1005.9 |
| 20260507064532 | 55 | 326 | 0.9 | 4.3 | 0.00 | 0.07 | 0.00 | 89 | 1005.9 |
| 20260507064014 | 56 | 0 | 0.0 | 3.5 | 0.00 | 0.07 | 0.00 | 90 | 1005.9 |
| 20260507063514 | 56 | 0 | 0.0 | 3.5 | 0.00 | 0.07 | 0.00 | 90 | 1005.8 |
| 20260507063029 | 56 | 257 | 0.0 | 3.5 | 0.00 | 0.07 | 0.00 | 90 | 1006.0 |
| 20260507062514 | 56 | 290 | 0.0 | 3.5 | 0.00 | 0.07 | 0.00 | 90 | 1005.9 |
| 20260507062012 | 57 | 0 | 0.0 | 0.9 | 0.00 | 0.07 | 0.00 | 90 | 1006.0 |
| 20260507061534 | 57 | 0 | 0.0 | 0.9 | 0.00 | 0.07 | 0.00 | 90 | 1006.0 |
| 20260507061014 | 57 | 0 | 0.0 | 0.0 | 0.00 | 0.07 | 0.00 | 90 | 1006.0 |
| 20260507060513 | 57 | 0 | 0.0 | 1.7 | 0.00 | 0.07 | 0.00 | 90 | 1005.9 |
| 20260507060032 | 57 | 0 | 0.0 | 1.7 | 0.00 | 0.07 | 0.00 | 90 | 1005.9 |
| 20260507055514 | 57 | 272 | 0.0 | 1.7 | 0.00 | 0.07 | 0.00 | 90 | 1006.0 |
| 20260507055014 | 57 | 0 | 0.0 | 0.0 | 0.00 | 0.07 | 0.00 | 90 | 1006.2 |
| 20260507054531 | 57 | 0 | 0.0 | 0.0 | 0.00 | 0.07 | 0.00 | 90 | 1006.1 |
| 20260507054013 | 57 | 0 | 0.0 | 0.0 | 0.00 | 0.07 | 0.00 | 90 | 1006.3 |
| 20260507053513 | 57 | 0 | 0.0 | 1.7 | 0.00 | 0.07 | 0.00 | 91 | 1006.4 |
| 20260507053032 | 57 | 0 | 0.0 | 1.7 | 0.00 | 0.07 | 0.00 | 91 | 1006.5 |
| 20260507052513 | 57 | 0 | 0.0 | 0.9 | 0.00 | 0.07 | 0.00 | 91 | 1006.4 |
| 20260507052011 | 57 | 0 | 0.0 | 0.9 | 0.00 | 0.07 | 0.00 | 91 | 1006.5 |
| 20260507051531 | 57 | 0 | 0.0 | 0.9 | 0.00 | 0.07 | 0.00 | 91 | 1006.4 |
| 20260507051022 | 57 | 0 | 0.0 | 0.9 | 0.00 | 0.07 | 0.00 | 91 | 1006.3 |
| 20260507050514 | 57 | 0 | 0.0 | 0.9 | 0.00 | 0.07 | 0.00 | 91 | 1006.5 |
| 20260507050032 | 57 | 0 | 0.0 | 3.5 | 0.00 | 0.07 | 0.00 | 91 | 1006.5 |
| 20260507045511 | 57 | 0 | 0.0 | 3.5 | 0.00 | 0.07 | 0.00 | 91 | 1006.5 |
| 20260507045014 | 57 | 0 | 0.0 | 0.9 | 0.00 | 0.07 | 0.00 | 91 | 1006.5 |
| 20260507044535 | 57 | 0 | 0.0 | 0.9 | 0.00 | 0.07 | 0.00 | 90 | 1006.6 |
| 20260507044011 | 57 | 0 | 0.0 | 0.0 | 0.00 | 0.07 | 0.00 | 90 | 1006.6 |
| 20260507043513 | 57 | 0 | 0.0 | 0.0 | 0.00 | 0.07 | 0.00 | 90 | 1006.7 |
| 20260507043032 | 57 | 0 | 0.0 | 0.9 | 0.00 | 0.07 | 0.00 | 90 | 1006.7 |
| 20260507042515 | 57 | 0 | 0.0 | 0.9 | 0.00 | 0.07 | 0.00 | 90 | 1006.6 |
| 20260507042010 | 57 | 0 | 0.0 | 0.9 | 0.00 | 0.07 | 0.00 | 90 | 1006.4 |
| 20260507041529 | 56 | 0 | 0.0 | 0.0 | 0.00 | 0.07 | 0.00 | 90 | 1006.4 |
| 20260507041013 | 56 | 0 | 0.0 | 0.0 | 0.00 | 0.07 | 0.00 | 90 | 1006.5 |
| 20260507040514 | 56 | 0 | 0.0 | 0.0 | 0.00 | 0.07 | 0.00 | 90 | 1006.5 |
| 20260507040035 | 56 | 0 | 0.0 | 0.0 | 0.00 | 0.07 | 0.00 | 90 | 1006.5 |
| 20260507035513 | 56 | 0 | 0.0 | 0.0 | 0.00 | 0.07 | 0.07 | 90 | 1006.5 |
| 20260507035013 | 56 | 0 | 0.0 | 1.7 | 0.00 | 0.07 | 0.07 | 90 | 1006.5 |
| 20260507034529 | 56 | 0 | 0.0 | 1.7 | 0.00 | 0.07 | 0.07 | 90 | 1006.3 |
| 20260507034014 | 56 | 127 | 0.0 | 3.5 | 0.00 | 0.07 | 0.07 | 90 | 1006.6 |
| 20260507033514 | 56 | 0 | 0.0 | 3.5 | 0.00 | 0.07 | 0.07 | 90 | 1006.5 |
| 20260507033029 | 56 | 163 | 0.0 | 1.7 | 0.00 | 0.07 | 0.07 | 90 | 1006.9 |
| 20260507032513 | 56 | 0 | 0.0 | 1.7 | 0.00 | 0.07 | 0.07 | 90 | 1006.7 |
| 20260507032015 | 56 | 0 | 0.0 | 1.7 | 0.00 | 0.07 | 0.07 | 90 | 1006.8 |
| 20260507031530 | 56 | 155 | 0.0 | 3.5 | 0.00 | 0.07 | 0.07 | 90 | 1006.4 |
| 20260507031015 | 56 | 0 | 0.0 | 3.5 | 0.00 | 0.07 | 0.07 | 90 | 1006.4 |
| 20260507030511 | 56 | 0 | 0.9 | 3.5 | 0.00 | 0.07 | 0.07 | 90 | 1006.6 |
| 20260507030030 | 56 | 145 | 0.0 | 3.5 | 0.00 | 0.07 | 0.07 | 90 | 1006.5 |
| 20260507025513 | 56 | 0 | 0.0 | 6.1 | 0.00 | 0.07 | 0.07 | 90 | 1006.5 |
| 20260507025013 | 56 | 128 | 0.0 | 6.1 | 0.00 | 0.07 | 0.07 | 90 | 1006.6 |
| 20260507024533 | 56 | 184 | 0.9 | 7.0 | 0.00 | 0.07 | 0.07 | 90 | 1006.4 |
| 20260507024016 | 56 | 154 | 2.6 | 7.0 | 0.00 | 0.07 | 0.07 | 90 | 1006.5 |
| 20260507023514 | 56 | 140 | 0.0 | 3.5 | 0.00 | 0.07 | 0.07 | 90 | 1006.6 |
| 20260507023030 | 56 | 143 | 0.0 | 4.3 | 0.00 | 0.07 | 0.07 | 90 | 1006.8 |
| 20260507022513 | 56 | 239 | 0.9 | 7.0 | 0.00 | 0.07 | 0.07 | 90 | 1006.5 |
| 20260507022013 | 56 | 174 | 1.7 | 7.0 | 0.00 | 0.07 | 0.07 | 90 | 1006.5 |
| 20260507021535 | 56 | 209 | 0.9 | 5.2 | 0.00 | 0.07 | 0.07 | 90 | 1006.4 |
| 20260507021014 | 56 | 144 | 0.9 | 4.3 | 0.00 | 0.07 | 0.07 | 90 | 1006.6 |
| 20260507020514 | 56 | 142 | 0.0 | 4.3 | 0.00 | 0.07 | 0.07 | 90 | 1006.7 |
| 20260507020031 | 56 | 0 | 0.9 | 4.3 | 0.00 | 0.07 | 0.07 | 90 | 1006.6 |
| 20260507015512 | 56 | 133 | 0.0 | 5.2 | 0.00 | 0.07 | 0.07 | 90 | 1006.7 |
| 20260507015014 | 56 | 154 | 0.0 | 5.2 | 0.00 | 0.07 | 0.07 | 90 | 1006.7 |
| 20260507014544 | 56 | 139 | 0.9 | 5.2 | 0.00 | 0.07 | 0.07 | 90 | 1006.7 |
| 20260507014014 | 56 | 161 | 0.9 | 3.5 | 0.00 | 0.07 | 0.07 | 90 | 1006.9 |
| 20260507013513 | 56 | 151 | 0.0 | 5.2 | 0.00 | 0.07 | 0.07 | 90 | 1006.9 |
| 20260507013030 | 56 | 140 | 1.7 | 5.2 | 0.00 | 0.07 | 0.07 | 90 | 1006.9 |
| 20260507012513 | 56 | 0 | 0.0 | 2.6 | 0.00 | 0.07 | 0.07 | 90 | 1007.0 |
| 20260507012017 | 56 | 0 | 0.0 | 7.8 | 0.00 | 0.07 | 0.07 | 90 | 1007.0 |
| 20260507011532 | 56 | 0 | 0.0 | 7.8 | 0.00 | 0.07 | 0.07 | 90 | 1007.0 |
| 20260507011013 | 56 | 151 | 0.9 | 7.0 | 0.00 | 0.07 | 0.07 | 90 | 1006.9 |
| 20260507010513 | 56 | 252 | 0.0 | 7.0 | 0.00 | 0.07 | 0.07 | 90 | 1007.1 |
| 20260507010034 | 56 | 139 | 1.7 | 7.0 | 0.00 | 0.07 | 0.07 | 90 | 1007.1 |
| 20260507005513 | 56 | 194 | 0.9 | 4.3 | 0.00 | 0.07 | 0.07 | 90 | 1007.2 |
| 20260507005015 | 56 | 205 | 0.9 | 7.0 | 0.00 | 0.07 | 0.07 | 90 | 1007.0 |
| 20260507004530 | 56 | 0 | 1.7 | 7.0 | 0.00 | 0.07 | 0.07 | 90 | 1007.0 |
| 20260507004018 | 56 | 79 | 1.7 | 7.0 | 0.00 | 0.07 | 0.07 | 90 | 1007.0 |
| 20260507003512 | 56 | 71 | 0.9 | 7.0 | 0.01 | 0.07 | 0.07 | 90 | 1007.1 |
| 20260507003030 | 56 | 182 | 0.9 | 7.8 | 0.01 | 0.07 | 0.07 | 90 | 1006.9 |
| 20260507002514 | 56 | 164 | 2.6 | 7.8 | 0.01 | 0.07 | 0.07 | 90 | 1006.8 |
| 20260507002014 | 56 | 206 | 1.7 | 6.1 | 0.01 | 0.07 | 0.07 | 90 | 1006.9 |
| 20260507001532 | 56 | 117 | 1.7 | 6.1 | 0.01 | 0.07 | 0.07 | 90 | 1006.9 |
| 20260507001017 | 56 | 154 | 0.9 | 8.7 | 0.01 | 0.07 | 0.07 | 90 | 1006.9 |
| 20260507000514 | 55 | 178 | 0.0 | 8.7 | 0.01 | 0.07 | 0.07 | 90 | 1006.9 |
| 20260507000037 | 55 | 169 | 1.7 | 7.8 | 0.01 | 0.07 | 0.07 | 90 | 1007.0 |
| 20260506235514 | 55 | 202 | 0.9 | 7.8 | 0.01 | 0.07 | 0.07 | 90 | 1006.9 |
| 20260506235015 | 55 | 134 | 0.9 | 7.0 | 0.01 | 0.07 | 0.07 | 90 | 1006.9 |
| 20260506234530 | 55 | 151 | 1.7 | 7.0 | 0.01 | 0.07 | 0.07 | 89 | 1006.7 |
| 20260506234012 | 55 | 162 | 0.9 | 8.7 | 0.01 | 0.07 | 0.07 | 89 | 1006.9 |
| 20260506233515 | 55 | 105 | 1.7 | 8.7 | 0.00 | 0.06 | 0.06 | 89 | 1006.7 |
| 20260506233034 | 55 | 246 | 0.0 | 7.8 | 0.00 | 0.06 | 0.06 | 89 | 1007.0 |
| 20260506232514 | 55 | 0 | 1.7 | 7.8 | 0.00 | 0.06 | 0.06 | 89 | 1006.9 |
| 20260506232014 | 55 | 147 | 1.7 | 7.8 | 0.00 | 0.06 | 0.06 | 89 | 1006.8 |
| 20260506231531 | 55 | 159 | 0.9 | 7.8 | 0.00 | 0.06 | 0.06 | 89 | 1007.0 |
| 20260506231018 | 55 | 115 | 2.6 | 7.8 | 0.01 | 0.06 | 0.06 | 89 | 1007.0 |
| 20260506230515 | 55 | 146 | 1.7 | 9.6 | 0.01 | 0.06 | 0.06 | 89 | 1007.0 |
| 20260506230032 | 55 | 196 | 2.6 | 9.6 | 0.02 | 0.06 | 0.06 | 89 | 1007.0 |
| 20260506225517 | 56 | 190 | 2.6 | 9.6 | 0.02 | 0.06 | 0.06 | 89 | 1006.9 |
| 20260506225013 | 56 | 210 | 0.9 | 7.8 | 0.02 | 0.06 | 0.06 | 89 | 1006.9 |
| 20260506224531 | 56 | 186 | 3.5 | 11.3 | 0.03 | 0.06 | 0.06 | 89 | 1006.8 |
| 20260506224016 | 56 | 143 | 1.7 | 11.3 | 0.03 | 0.06 | 0.06 | 89 | 1006.8 |
| 20260506223515 | 56 | 139 | 2.6 | 7.0 | 0.03 | 0.06 | 0.06 | 89 | 1006.7 |
| 20260506223032 | 56 | 147 | 1.7 | 7.8 | 0.04 | 0.06 | 0.06 | 88 | 1007.0 |
| 20260506222516 | 56 | 161 | 1.7 | 8.7 | 0.04 | 0.06 | 0.06 | 88 | 1006.8 |
| 20260506222018 | 56 | 142 | 1.7 | 8.7 | 0.04 | 0.06 | 0.06 | 88 | 1006.8 |
| 20260506221534 | 56 | 184 | 2.6 | 7.0 | 0.03 | 0.05 | 0.05 | 88 | 1007.1 |
| 20260506221017 | 56 | 17 | 0.0 | 8.7 | 0.03 | 0.05 | 0.05 | 88 | 1007.4 |
| 20260506220514 | 56 | 126 | 0.9 | 8.7 | 0.03 | 0.05 | 0.05 | 88 | 1007.5 |
| 20260506220030 | 56 | 171 | 3.5 | 10.4 | 0.02 | 0.04 | 0.04 | 88 | 1007.4 |
| 20260506215520 | 56 | 150 | 3.5 | 10.4 | 0.02 | 0.04 | 0.04 | 87 | 1007.5 |
| 20260506215018 | 57 | 179 | 2.6 | 10.4 | 0.02 | 0.04 | 0.04 | 87 | 1007.5 |
| 20260506214531 | 57 | 186 | 0.9 | 8.7 | 0.01 | 0.03 | 0.03 | 87 | 1007.5 |
| 20260506214014 | 57 | 170 | 2.6 | 8.7 | 0.01 | 0.03 | 0.03 | 86 | 1007.5 |
| 20260506213515 | 57 | 200 | 1.7 | 7.8 | 0.01 | 0.03 | 0.03 | 86 | 1007.6 |
| 20260506213031 | 57 | 196 | 1.7 | 7.8 | 0.00 | 0.02 | 0.02 | 86 | 1007.6 |
| 20260506212514 | 57 | 95 | 1.7 | 7.8 | 0.00 | 0.02 | 0.02 | 86 | 1007.5 |
| 20260506212014 | 58 | 172 | 1.7 | 7.8 | 0.00 | 0.02 | 0.02 | 86 | 1007.5 |
| 20260506211534 | 58 | 240 | 1.7 | 9.6 | 0.00 | 0.02 | 0.02 | 86 | 1007.7 |
| 20260506211015 | 58 | 194 | 2.6 | 9.6 | 0.00 | 0.02 | 0.02 | 86 | 1007.7 |
| 20260506210517 | 58 | 169 | 2.6 | 9.6 | 0.00 | 0.02 | 0.02 | 86 | 1007.7 |
| 20260506210032 | 58 | 214 | 1.7 | 8.7 | 0.00 | 0.02 | 0.02 | 86 | 1007.7 |
| 20260506205515 | 58 | 121 | 1.7 | 7.8 | 0.00 | 0.02 | 0.02 | 86 | 1007.8 |
| 20260506205014 | 58 | 155 | 2.6 | 9.6 | 0.00 | 0.02 | 0.02 | 86 | 1007.9 |
| 20260506204532 | 58 | 205 | 2.6 | 9.6 | 0.01 | 0.02 | 0.02 | 86 | 1007.9 |
| 20260506204014 | 58 | 183 | 2.6 | 13.0 | 0.01 | 0.02 | 0.02 | 86 | 1007.9 |
| 20260506203518 | 58 | 158 | 3.5 | 13.0 | 0.01 | 0.02 | 0.02 | 86 | 1008.1 |
| 20260506203032 | 58 | 153 | 1.7 | 8.7 | 0.02 | 0.02 | 0.02 | 86 | 1008.0 |
| 20260506202514 | 58 | 165 | 2.6 | 7.8 | 0.02 | 0.02 | 0.02 | 86 | 1008.0 |
| 20260506202012 | 59 | 71 | 1.7 | 8.7 | 0.02 | 0.02 | 0.02 | 86 | 1008.0 |
| 20260506201531 | 59 | 163 | 2.6 | 8.7 | 0.02 | 0.02 | 0.02 | 86 | 1008.0 |
| 20260506201013 | 59 | 202 | 2.6 | 7.8 | 0.02 | 0.02 | 0.02 | 86 | 1008.3 |
| 20260506200519 | 59 | 92 | 2.6 | 7.8 | 0.02 | 0.02 | 0.02 | 86 | 1008.1 |
| 20260506200029 | 60 | 117 | 0.9 | 8.7 | 0.02 | 0.02 | 0.02 | 86 | 1008.2 |
| 20260506195513 | 60 | 167 | 3.5 | 12.2 | 0.02 | 0.02 | 0.02 | 85 | 1008.1 |
| 20260506195011 | 60 | 161 | 4.3 | 12.2 | 0.02 | 0.02 | 0.02 | 85 | 1008.1 |
| 20260506194530 | 60 | 207 | 2.6 | 8.7 | 0.01 | 0.01 | 0.01 | 84 | 1008.3 |
| 20260506194014 | 61 | 321 | 1.7 | 8.7 | 0.01 | 0.01 | 0.01 | 83 | 1008.2 |
| 20260506193511 | 62 | 183 | 2.6 | 6.1 | 0.01 | 0.01 | 0.01 | 82 | 1008.5 |
| 20260506193033 | 62 | 155 | 0.9 | 7.8 | 0.00 | 0.00 | 0.00 | 81 | 1008.3 |
| 20260506192516 | 62 | 0 | 0.9 | 8.7 | 0.00 | 0.00 | 0.00 | 80 | 1008.4 |
| 20260506192013 | 63 | 174 | 1.7 | 18.2 | 0.00 | 0.00 | 0.00 | 79 | 1008.5 |
| 20260506191532 | 63 | 84 | 1.7 | 18.2 | 0.00 | 0.00 | 0.00 | 78 | 1008.3 |
| 20260506191014 | 64 | 128 | 2.6 | 11.3 | 0.00 | 0.00 | 0.00 | 76 | 1008.4 |
| 20260506190511 | 64 | 229 | 4.3 | 11.3 | 0.00 | 0.00 | 0.00 | 76 | 1008.3 |
| 20260506190030 | 64 | 137 | 1.7 | 11.3 | 0.00 | 0.00 | 0.00 | 75 | 1008.5 |
| 20260506185513 | 64 | 184 | 2.6 | 11.3 | 0.00 | 0.00 | 0.00 | 75 | 1008.4 |
| 20260506185012 | 64 | 155 | 2.6 | 7.8 | 0.00 | 0.00 | 0.00 | 75 | 1008.6 |
| 20260506184531 | 64 | 170 | 2.6 | 8.7 | 0.00 | 0.00 | 0.00 | 75 | 1008.3 |
| 20260506184010 | 64 | 248 | 3.5 | 8.7 | 0.00 | 0.00 | 0.00 | 74 | 1008.3 |
| 20260506183513 | 64 | 151 | 1.7 | 8.7 | 0.00 | 0.00 | 0.00 | 74 | 1008.3 |
| 20260506183032 | 65 | 132 | 1.7 | 8.7 | 0.00 | 0.00 | 0.00 | 74 | 1008.6 |
| 20260506182512 | 65 | 134 | 4.3 | 9.6 | 0.00 | 0.00 | 0.00 | 73 | 1008.6 |
| 20260506182014 | 66 | 176 | 3.5 | 9.6 | 0.00 | 0.00 | 0.00 | 73 | 1008.8 |
| 20260506181532 | 66 | 156 | 3.5 | 9.6 | 0.00 | 0.00 | 0.00 | 72 | 1008.6 |
| 20260506181015 | 66 | 190 | 2.6 | 8.7 | 0.00 | 0.00 | 0.00 | 72 | 1008.6 |
| 20260506180515 | 66 | 208 | 2.6 | 13.9 | 0.00 | 0.00 | 0.00 | 72 | 1008.7 |
| 20260506180036 | 67 | 168 | 2.6 | 13.9 | 0.00 | 0.00 | 0.00 | 71 | 1008.9 |
| 20260506175510 | 67 | 145 | 3.5 | 13.9 | 0.00 | 0.00 | 0.00 | 71 | 1009.1 |
| 20260506175011 | 67 | 67 | 4.3 | 13.9 | 0.00 | 0.00 | 0.00 | 71 | 1008.7 |
| 20260506174529 | 67 | 175 | 3.5 | 14.8 | 0.00 | 0.00 | 0.00 | 71 | 1009.1 |
| 20260506174013 | 67 | 150 | 5.2 | 14.8 | 0.00 | 0.00 | 0.00 | 70 | 1009.1 |
| 20260506173512 | 68 | 149 | 2.6 | 13.9 | 0.00 | 0.00 | 0.00 | 70 | 1009.4 |
| 20260506173029 | 68 | 147 | 3.5 | 13.0 | 0.00 | 0.00 | 0.00 | 70 | 1009.3 |
| 20260506172511 | 68 | 165 | 4.3 | 15.6 | 0.00 | 0.00 | 0.00 | 71 | 1009.4 |
| 20260506172013 | 67 | 134 | 5.2 | 15.6 | 0.00 | 0.00 | 0.00 | 71 | 1009.2 |
| 20260506171533 | 67 | 140 | 1.7 | 15.6 | 0.00 | 0.00 | 0.00 | 71 | 1009.2 |
| 20260506171010 | 67 | 189 | 5.2 | 15.6 | 0.00 | 0.00 | 0.00 | 70 | 1009.4 |
| 20260506170510 | 68 | 213 | 3.5 | 12.2 | 0.00 | 0.00 | 0.00 | 69 | 1009.4 |
| 20260506170031 | 69 | 0 | 4.3 | 14.8 | 0.00 | 0.00 | 0.00 | 68 | 1009.2 |
| 20260506165515 | 68 | 189 | 5.2 | 14.8 | 0.00 | 0.00 | 0.00 | 69 | 1009.4 |
| 20260506165010 | 68 | 177 | 4.3 | 13.0 | 0.00 | 0.00 | 0.00 | 69 | 1009.5 |
| 20260506164530 | 68 | 173 | 3.5 | 13.0 | 0.00 | 0.00 | 0.00 | 70 | 1009.6 |
| 20260506164011 | 67 | 44 | 3.5 | 12.2 | 0.00 | 0.00 | 0.00 | 71 | 1009.8 |
| 20260506163513 | 67 | 153 | 2.6 | 15.6 | 0.00 | 0.00 | 0.00 | 72 | 1009.9 |
| 20260506163052 | 67 | 191 | 3.5 | 16.5 | 0.00 | 0.00 | 0.00 | 71 | 1009.7 |
| 20260506162519 | 67 | 206 | 5.2 | 16.5 | 0.00 | 0.00 | 0.00 | 71 | 1009.8 |
| 20260506162013 | 67 | 184 | 3.5 | 13.0 | 0.00 | 0.00 | 0.00 | 71 | 1009.9 |